Location: River House Observatory
(37.8577°N, 76.3548°W)
Time: 19:49:11
(UTC-05:00)

NOSS 3-1 (C) - Visible Passes

Search period start: 16 January 2017 00:00
Search period end: 26 January 2017 00:00
Orbit: 840 x 1369 km, 63.4° (Epoch: 05 January)

Date Brightness Start Highest point End Pass type
(mag) Time Alt. Az. Time Alt. Az. Time Alt. Az.
16 Jan 6.2 03:33:36 12° NNE 03:34:45 12° NNE 03:37:28 10° NE visible
16 Jan 5.1 05:21:00 11° NNW 05:27:53 40° NE 05:35:32 10° ESE visible
17 Jan 5.6 04:37:21 15° N 04:42:11 28° NE 04:48:57 10° E visible
17 Jan 4.1 06:26:07 10° NW 06:33:51 78° WSW 06:42:14 10° SSE visible
18 Jan 5.8 03:53:45 17° NNE 03:56:19 20° NE 04:01:52 10° E visible
18 Jan 4.3 05:41:11 12° NNW 05:48:30 72° NE 05:56:52 10° SE visible
19 Jan 6.2 03:10:13 14° NNE 03:10:15 14° NNE 03:14:10 10° ENE visible
19 Jan 4.8 04:57:38 19° NNW 05:03:03 49° NE 05:11:02 10° SE visible
19 Jan 4.6 06:46:49 10° NW 06:53:59 41° WSW 07:01:39 10° S visible
20 Jan 5.3 04:14:10 25° N 04:17:26 34° NE 04:24:43 10° ESE visible
20 Jan 4.2 06:01:36 12° NW 06:08:49 63° WSW 06:17:05 10° SSE visible
20 Jan 5.2 19:52:30 10° S 19:53:52 18° S 19:53:52 18° S visible
21 Jan 5.6 03:30:47 23° NNE 03:31:40 24° NE 03:37:55 10° E visible
21 Jan 4.0 05:18:13 23° NNW 05:23:33 88° ENE 05:31:59 10° SSE visible
21 Jan 4.6 19:08:17 10° SSE 19:11:03 23° SE 19:11:03 23° SE visible
21 Jan 5.9 20:57:56 10° WSW 20:58:31 13° WSW 20:58:31 13° WSW visible
22 Jan 6.2 02:47:29 16° NE 02:47:29 16° NE 02:50:34 10° ENE visible
22 Jan 4.4 04:34:56 37° N 04:38:10 60° NE 04:46:24 10° SE visible
22 Jan 4.9 06:22:23 11° NW 06:28:52 32° WSW 06:35:59 10° S visible
22 Jan 4.9 18:25:07 10° SE 18:28:13 15° ESE 18:28:13 15° ESE visible
22 Jan 4.4 20:12:20 10° SW 20:15:42 38° SW 20:15:42 38° SW visible
23 Jan 4.9 03:51:45 40° NNE 03:52:39 41° NE 04:00:20 10° ESE visible
23 Jan 4.3 05:39:12 24° NW 05:43:46 50° WSW 05:51:46 10° S visible
23 Jan 3.2 19:27:12 10° SSW 19:32:51 67° ESE 19:32:52 67° ESE visible
23 Jan 6.0 21:19:39 10° W 21:20:21 13° W 21:20:21 13° W visible
24 Jan 5.7 03:08:40 27° ENE 03:08:40 27° ENE 03:13:49 10° E visible
24 Jan 3.9 04:56:07 49° NW 04:58:34 76° WSW 05:06:57 10° SSE visible
24 Jan 5.6 06:44:46 10° WNW 06:48:37 14° WSW 06:52:32 10° SW visible
24 Jan 3.8 18:42:37 10° S 18:47:50 38° ESE 18:50:02 28° ENE visible
24 Jan 4.8 20:33:18 10° WSW 20:37:30 32° WNW 20:37:30 32° WNW visible
25 Jan 6.4 02:25:41 13° ENE 02:25:41 13° ENE 02:26:46 10° E visible
25 Jan 4.1 04:13:09 75° NE 04:13:14 75° ENE 04:21:37 10° SE visible
25 Jan 5.1 06:00:37 19° WNW 06:03:43 24° WSW 06:10:04 10° SSW visible
25 Jan 4.6 17:58:46 10° SSE 18:02:57 21° ESE 18:07:08 11° ENE visible
25 Jan 3.9 19:47:27 10° SW 19:53:08 56° NW 19:54:36 45° N visible
